Weather History for Las Vegas, NM

Change the Weather History Date:

Saturday, January 18, 2014

  Actual Average Record
Temperature  
Mean Temperature 38 °F -  
Max Temperature 51 °F 45 °F 66 °F (1950)
Min Temperature 24 °F 22 °F -8 °F (1960)
Degree Days  
Heating Degree Days 28    
Moisture  
Dew Point 7 °F    
Average Humidity 33    
Maximum Humidity 48    
Minimum Humidity 16    
Precipitation  
Precipitation 0.00 in - - ()
Sea Level Pressure  
Sea Level Pressure 30.16 in    
Wind  
Wind Speed 9 mph (SSW)    
Max Wind Speed 14 mph    
Max Gust Speed -    
Visibility 10 miles    
Events      
Averages and records for this station are not official NWS values.
T = Trace of Precipitation, MM = Missing Value Source: NWS Daily Summary

Daily Weather History Graph

Daily Weather History Graph

Search for Another Location

Airport:

Trip Planner

Search our weather history database for the weather conditions in past years. The results will help you decide how hot, cold, wet, or windy it might be!

Date:

Astronomy

Jan. 18, 2014 Rise Set
Actual Time 7:08 AM MST 5:13 PM MST
Civil Twilight 6:41 AM MST 5:41 PM MST
Nautical Twilight 6:09 AM MST 6:12 PM MST
Astronomical Twilight 5:39 AM MST 6:43 PM MST
Moon 7:51 PM MST (1/18) 8:15 AM MST (1/18)
Length of Visible Light 11h 00m
Length of Day
10h 05m
Waning Gibbous, 94% of the Moon is Illuminated
Jan 18
Waning Gibbous
Jan 23
Last Quarter
Jan 30
New
Feb 6
First Quarter
Feb 14
Full

Hourly Weather History & Observations

Time (MST) Temp. Windchill Dew Point Humidity Pressure Visibility Wind Dir Wind Speed Gust Speed Precip Events Conditions
12:53 AM 28.0 °F 18.1 °F 8.1 °F 43% 30.03 in 10.0 mi NNW 11.5 mph - N/A   Clear
1:53 AM 28.9 °F 18.2 °F 7.0 °F 40% 30.02 in 10.0 mi NW 13.8 mph - N/A   Clear
2:53 AM 28.9 °F 21.9 °F 7.0 °F 40% 30.03 in 10.0 mi NNE 6.9 mph - N/A   Clear
3:53 AM 27.0 °F 16.7 °F 8.1 °F 45% 30.03 in 10.0 mi North 11.5 mph - N/A   Clear
4:53 AM 27.0 °F 18.7 °F 7.0 °F 43% 30.06 in 10.0 mi North 8.1 mph - N/A   Clear
5:53 AM 24.1 °F 16.0 °F 7.0 °F 48% 30.13 in 10.0 mi North 6.9 mph - N/A   Clear
6:53 AM 24.1 °F 15.2 °F 7.0 °F 48% 30.17 in 10.0 mi NNE 8.1 mph - N/A   Clear
7:53 AM 27.0 °F 18.7 °F 8.1 °F 45% 30.19 in 10.0 mi North 8.1 mph - N/A   Clear
8:53 AM 37.9 °F 33.5 °F 9.0 °F 30% 30.14 in 10.0 mi NNE 5.8 mph - N/A   Clear
9:53 AM 43.0 °F 41.3 °F 10.9 °F 27% 30.16 in 10.0 mi North 3.5 mph - N/A   Clear
10:53 AM 46.9 °F - 8.1 °F 21% 30.16 in 10.0 mi Variable 5.8 mph - N/A   Clear
11:53 AM 48.9 °F - 6.1 °F 18% 30.11 in 10.0 mi SSE 9.2 mph - N/A   Clear
12:53 PM 48.9 °F - 5.0 °F 17% 30.14 in 10.0 mi South 8.1 mph - N/A   Clear
1:53 PM 51.1 °F - 6.1 °F 16% 30.13 in 10.0 mi Variable 4.6 mph - N/A   Clear
2:53 PM 50.0 °F - 6.1 °F 17% 30.14 in 10.0 mi SSW 8.1 mph - N/A   Clear
3:53 PM 50.0 °F - 6.1 °F 17% 30.16 in 10.0 mi SSE 5.8 mph - N/A   Clear
4:53 PM 45.0 °F 40.1 °F 7.0 °F 21% 30.20 in 10.0 mi SSW 9.2 mph - N/A   Clear
5:53 PM 35.1 °F 26.9 °F 6.1 °F 30% 30.28 in 10.0 mi South 11.5 mph - N/A   Clear
6:53 PM 33.1 °F 24.4 °F 6.1 °F 32% 30.30 in 10.0 mi South 11.5 mph - N/A   Clear
7:53 PM 30.0 °F 21.7 °F 6.1 °F 36% 30.32 in 10.0 mi South 9.2 mph - N/A   Clear
8:53 PM 30.9 °F 22.2 °F 6.1 °F 35% 30.26 in 10.0 mi SSW 10.4 mph - N/A   Clear
9:53 PM 30.9 °F 22.8 °F 7.0 °F 37% 30.25 in 10.0 mi SSW 9.2 mph - N/A   Clear
10:53 PM 28.0 °F 18.1 °F 6.1 °F 39% 30.24 in 10.0 mi South 11.5 mph - N/A   Clear
11:53 PM 27.0 °F 16.1 °F 7.0 °F 43% 30.22 in 10.0 mi South 12.7 mph - N/A   Clear